OPS 5798 DEB, 901

Orbit data source: Space-Track

OPS 5798 DEB, 901 is space debris in LEO originally from a launch on Tue, 06 Oct 1964 UTC launched from the Air Force Western Test Range (AFWTR). Debris objects in space refer to the collection of defunct objects orbiting the Earth. Examples of debris include non-operational satellites, rocket bodies, and fragments generated from explosions, collisions, or faulty payload assembly.

Loading next visibility...
Identifier
901, 1964-063D
Orbit
LEO
Last TLE update
21 hours ago
Origin
Manufacturer
NAFI?
Mission
Spacecraft
Bus & Motor
Unknown
Mass
~20 kg wet, ~20 kg dry
Launch date (UTC)
1964-10-06 (61 years ago)
Launch vehicle
Unknown
Launch site
Air Force Western Test Range (AFWTR)
Object type
Payload
Rocket body
Debris
Shape & HBR
Unknown
Radar Cross Section
1.300 m², Large (>1 m²)

Expand to show TLE details & history

TLE from 21 hours ago
0 OPS 5798 DEB
1 00901U 64063D   25166.70074341  .00000103  00000-0  13584-3 0  9993
2 00901  90.2331  67.7796 0021215 107.4391 281.1828 13.55065253996827
Epoch: 2025-06-15T16:49Z
TLE epoch observation values (Epoch: 2025-06-15T16:49:04.23Z)
Latitude
28.42418°
Longitude
-88.83561°
Altitude
1,054.223 km
Speed
7.329 km/s
True Right ascension
04h 30m 36s
True Declination
28° 17' 10"
Sunlit
Object was in daylight at epoch
Visualization orbit readout
Latitude
-26.85289°
Longitude
-88.57195°
Altitude
1,074.176 km
Speed
7.309 km/s
Apparent Right ascension
07h 32m 04s
Apparent Declination
-50° 52' 47"
Sunlit
Object is in daylight
Visualization observer readout
Local Sidereal Time
00:28:39
Azimuth
128.595° SE
Elevation
-39.052°
Doppler factor
1
Orbital elements
Apogee altitude
1,066.483 km
Perigee altitude
1,034.963 km
Semi-major axis
7,428.86 km
Eccentricity
0.00212
Inclination
90.2331°
RAAN
67.7796°
Arg. of periapsis
107.4391°
True anomaly
Unknown
Mean anomaly
281.1828°
Eccentric anomaly
Unknown
Mean motion
3.38969 °/min
Orbital period
106.2 mins
BSTAR
0.00013584
Loading maneuver chart data...
Loading SW <> Apogee altitude chart data...
Loading historical data...
Loading historical data...
Loading historical data...
Loading historical data...
Loading historical data...
Loading historical data...
Loading historical data...

OPS 5798 DEB Visibility forecast

Observer location: undefined°, undefined°

Span
Click to sort rows by Start time (UTC) header in descending order
Start Az.
Max El. time (UTC)
Max El. Az.
Max El.
End time (UTC)
End Az.
11 mins2025-06-16 17:35:47.265Z169.187° S2025-06-16 17:40:47.265Z121.114° SE44.066°2025-06-16 17:46:47.265Z0.913° NNE
5 mins2025-06-16 19:25:47.265Z261.189° W2025-06-16 19:27:47.265Z281.561° WNW14.957°2025-06-16 19:30:47.265Z311.284° NW
9 mins2025-06-17 04:44:47.265Z35.491° NE2025-06-17 04:48:47.265Z88.58° E26.846°2025-06-17 04:53:47.265Z142.231° SSE
10 mins2025-06-17 06:29:47.265Z343.008° N2025-06-17 06:34:47.265Z276.388° WNW33.021°2025-06-17 06:39:47.265Z216.679° SW
|